Location: Caser�o Los Pinares
(41.2651°N, 1.9445°E)
Time: 22:07:37
(UTC+00:00)

Daily predictions for brighter satellites

Satellite Brightness Start Highest point End
(mag) Time Altitude Azimuth Time Altitude Azimuth Time Altitude Azimuth
BREEZE M DEB (TANK) 4.0 17:06:23 10° WNW 17:10:13 87° NNE 17:33:56 10° ESE
Cosmos 1821 Rocket 4.5 17:10:19 10° SSW 17:16:41 71° W 17:23:00 10° N
CZ-4B R/B 4.3 17:14:51 10° S 17:19:06 49° W 17:23:29 10° NNW
Cosmos 1934 Rocket 3.9 17:14:19 10° S 17:20:19 67° E 17:26:19 10° NNE
Radarsat Rocket 4.4 17:14:16 10° SSE 17:20:48 78° ENE 17:28:20 10° NNW
Cosmos 1408 4.1 17:20:18 10° NNE 17:22:34 16° ENE 17:24:48 10° ESE
Cosmos 1602 Rocket 4.3 17:19:10 10° NNE 17:22:59 29° ENE 17:26:46 10° SE
Cosmos 1844 4.4 17:20:14 10° N 17:25:25 33° ENE 17:30:31 10° ESE
Okean O Rocket 2.4 17:25:07 10° SE 17:28:53 30° ENE 17:32:43 10° N
X-37B 1.9 17:26:30 10° W 17:29:13 35° SSW 17:31:56 10° SE
Cosmos 405 Rocket 4.2 17:27:25 10° NNW 17:31:17 45° W 17:35:08 10° SSW
Cosmos 371 Rocket 4.3 17:27:05 10° SW 17:31:47 49° WNW 17:36:33 10° N
Iridium 4 Rocket 3.5 17:28:13 10° N 17:33:07 63° E 17:38:27 10° SSE
Cosmos 2263 Rocket 3.8 17:28:16 10° NW 17:33:23 39° WSW 17:38:30 10° S
COSMO-SKYMED 1 3.0 17:29:48 10° NNE 17:33:53 39° E 17:37:57 10° SSE
CZ-2C R/B 3.2 17:29:17 10° NNE 17:34:28 38° E 17:39:29 10° SSE
Cosmos 2228 4.2 17:31:03 10° SE 17:34:30 23° E 17:37:59 10° NE
Cosmos 220 Rocket 4.0 17:32:19 10° SSW 17:36:44 80° ESE 17:41:08 10° NNE
Cosmos 614 Rocket 4.1 17:32:15 10° N 17:37:14 53° ENE 17:42:13 10° SE
Cosmos 2333 Rocket 2.9 17:32:30 10° SSE 17:37:26 32° ESE 17:42:25 10° NE
NOSS 2-2 (E) 3.8 17:34:41 10° S 17:37:43 30° ESE 17:40:31 12° ENE
Meteor 2-10 Rocket 3.7 17:32:59 10° S 17:38:21 55° E 17:43:30 10° NNE
In-Cosmos 22 Rocket 4.5 17:33:24 10° N 17:38:24 40° ENE 17:43:23 10° SE
CZ-4B R/B 3.4 17:33:24 10° SSE 17:38:54 56° ENE 17:44:25 10° N
Tiangong 1.7 17:36:41 10° W 17:39:50 53° SSW 17:42:57 10° ESE
CZ-4C R/B 3.8 17:39:49 10° NE 17:42:37 26° E 17:45:21 10° SSE
Cosmos 44 3.8 17:39:13 10° SW 17:44:36 71° WNW 17:49:58 10° NNE
Cosmos 2251 Rocket 3.5 17:40:17 10° NNW 17:45:28 59° ENE 17:50:37 10° SSE
Cosmos 1892 3.1 17:44:25 10° N 17:47:56 36° ENE 17:51:25 10° SSE
Okean 1-7 Rocket 4.1 17:43:37 10° NNW 17:48:03 66° W 17:52:29 10° S
Lacrosse 4 Rocket 2.1 17:47:19 10° NW 17:51:38 62° WSW 17:56:00 10° SSE
FALCON 9 DEB 3.8 17:49:49 10° WSW 17:52:37 39° NNW 17:54:55 14° NE
Cosmos 1758 Rocket 3.9 17:49:08 10° N 17:53:14 40° ENE 17:57:21 10° SSE
OAO 3 Rocket 4.1 17:50:06 10° WSW 17:54:28 37° S 17:57:56 15° ESE
CZ-4C R/B 3.1 17:51:14 10° SSE 17:54:40 21° ESE 17:56:17 18° E
Cosmos 2322 4.1 17:50:52 10° S 17:56:10 40° ESE 18:01:28 10° NE
Cosmos 1626 Rocket 3.6 17:51:51 10° N 17:56:11 80° W 18:00:29 10° S
Landsat 5 3.6 17:52:38 10° NNE 17:57:06 64° ESE 18:01:34 10° S
SKYMED 3 4.5 17:53:36 10° NNE 17:57:57 74° ESE 18:02:16 10° S
Okean-O 4.2 18:00:16 16° NE 18:00:16 16° NE 18:02:30 10° NNE
Cosmos 2123 Rocket 4.5 17:54:37 10° NNW 18:00:52 66° W 18:07:03 10° S
Cosmos 1844 Rocket 2.6 17:58:45 10° NNW 18:04:21 77° ENE 18:09:54 10° SSE
CZ-4 R/B 2.2 18:01:16 13° SE 18:04:21 30° ENE 18:07:58 10° N
USA 215 3.8 17:58:57 10° NE 18:05:18 55° NNW 18:11:37 10° WSW
Cosmos 1459 Rocket 4.4 18:04:32 10° SSE 18:10:03 35° E 18:15:31 10° NNE
Cosmos 2344 4.4 18:00:51 10° NNW 18:10:19 78° NE 18:23:40 10° SE
CZ-2D R/B 4.3 18:06:54 10° S 18:10:37 48° W 18:14:24 10° NNW
USA 229 DEB 4.3 18:06:50 10° SW 18:13:03 54° NW 18:19:43 10° NNE
USA 229 4.2 18:06:56 10° SW 18:13:09 55° NW 18:19:49 10° NNE
Meteor 1-4 Rocket 4.0 18:10:33 10° SW 18:13:46 37° WNW 18:17:00 10° N
Cosmos 1455 2.1 18:12:24 10° S 18:16:07 57° E 18:19:51 10° NNE
Feng Yun 1-1 Rocket 4.3 18:11:45 10° SSE 18:17:15 61° ENE 18:22:57 10° N
Cosmos 2056 Rocket 3.8 18:12:44 10° S 18:17:29 40° ESE 18:20:42 19° NE
Cosmos 1190 Rocket 4.5 18:12:57 10° N 18:17:48 38° ENE 18:20:02 26° ESE
Cosmos 292 Rocket 4.0 18:14:02 10° S 18:18:37 44° ESE 18:21:44 19° NE
YAOGAN 1 2.8 18:15:40 10° SE 18:19:47 46° ENE 18:23:56 10° N
H-2A R/B 2.7 18:20:26 32° ESE 18:20:26 32° ESE 18:24:04 10° SSE
SKYMED 2 4.1 18:17:42 10° N 18:22:00 60° WNW 18:26:15 10° SSW
Cosmos 1825 2.3 18:18:29 10° N 18:22:08 46° E 18:23:12 35° SE
Cosmos 2100 Rocket 4.1 18:18:30 10° SSE 18:24:35 52° E 18:30:44 10° NNE
Spot 2 4.0 18:20:56 10° SSE 18:25:07 67° ENE 18:29:33 10° N
NOSS 2-2 (C) 2.8 18:21:45 10° SSW 18:25:11 86° SE 18:26:17 41° NE
Cosmos 1606 Rocket 3.4 18:25:11 10° S 18:29:38 71° E 18:34:05 10° NNE
Cosmos 2173 Rocket 4.0 18:24:06 10° SSE 18:30:05 54° E 18:36:12 10° NNE
USA 267 3.2 18:33:17 21° SE 18:37:57 88° NE 18:44:32 10° NW
CENTAUR R/B 4.3 18:31:57 10° NNW 18:38:04 23° NNE 18:40:07 22° NE
Cosmos 2278 Rocket 3.4 18:34:47 10° N 18:38:33 24° NE 18:38:33 24° NE
Cosmos 1802 Rocket 4.0 18:34:29 10° SSE 18:40:20 50° E 18:46:15 10° NNE
COSMOS 2428 2.6 18:36:21 10° SSW 18:41:58 69° ESE 18:45:33 23° NNE
NOSS 0 Rocket 4.5 18:38:42 10° S 18:43:33 36° ESE 18:43:33 36° ESE
SL-08 RB Rocket 3.8 18:40:17 10° S 18:44:51 78° WSW 18:49:30 10° NNW
SL-24 R/B - RUBIN 2 4.1 18:38:44 10° SSW 18:44:55 86° ESE 18:47:58 29° NE
MetOp-A 4.3 18:44:20 46° E 18:44:55 48° ENE 18:50:04 10° N
IRS-1C Rocket 4.0 18:43:15 32° SE 18:45:38 61° ENE 18:50:50 10° N
Cosmos 1371 Rocket 3.9 18:44:19 10° SSW 18:49:34 89° W 18:53:37 17° NNE
ARGOS 4.0 18:46:43 10° S 18:51:58 52° W 18:57:16 10° NNW
Cosmos 2219 Rocket 2.3 18:48:42 10° SSW 18:54:16 74° WNW 18:58:59 15° NNE
H-2A R/B 2.9 18:50:16 10° S 18:54:27 59° WSW 18:58:29 10° NNW
H-2A R/B 4.1 18:51:08 10° SSW 18:55:47 29° W 19:00:30 10° NW
Cosmos 1624 Rocket 4.0 18:52:22 10° SSW 18:57:41 84° WNW 19:01:15 22° NNE
Cosmos 1726 Rocket 3.7 18:53:34 10° SSW 18:58:01 73° W 19:02:29 10° N
Lacrosse 5 2.1 18:54:13 10° SSW 18:58:38 54° SSE 18:58:38 54° SSE
Cosmos 2360 Rocket 4.0 18:55:37 10° WSW 19:00:26 28° NW 19:05:18 10° N
Cosmos 1140 Rocket 3.8 18:56:09 10° NNW 19:01:19 66° WSW 19:05:03 19° S
Orbus 7S? 3.6 18:56:28 10° NW 19:03:13 72° SW 19:03:23 71° SSW
Milstar 3 Cent rocket 4.0 18:58:00 10° SW 19:03:27 31° SSE 19:05:10 29° SE
Okean O Rocket 3.9 19:01:43 10° SSW 19:05:14 24° W 19:08:47 10° NW
Cosmos 2237 Rocket 4.3 19:04:25 10° S 19:05:04 13° S 19:05:04 13° S
Cosmos 407 Rocket 4.3 19:06:37 10° NNW 19:11:47 51° WSW 19:16:19 13° S
Cosmos 2016 Rocket 3.8 19:06:06 10° S 19:12:16 75° E 19:18:24 10° N
Meteor 2-1 Rocket 4.1 19:08:50 10° S 19:14:27 87° W 19:20:01 10° N
Cosmos 2346 Rocket 4.4 19:08:45 10° N 19:15:04 87° W 19:19:33 20° S
Tiangong 4.2 19:14:29 10° WSW 19:15:15 12° SW 19:15:15 12° SW
Cosmos 2333 Rocket 3.5 19:16:19 10° SW 19:21:34 38° WNW 19:26:46 11° N
CSL-04 Debris 4.2 19:22:52 73° NNW 19:22:52 73° NNW 19:27:47 10° NNW
Cosmos 1954 Rocket 4.4 19:20:26 10° NNW 19:24:32 55° NNW 19:24:32 55° NNW
CSL-04 Rocket 4.0 19:29:42 63° NNW 19:29:42 63° NNW 19:34:21 10° NNW
Cosmos 1420 Rocket 4.5 19:27:04 10° SSW 19:31:42 57° W 19:31:42 57° W
Okean-O 4.4 19:37:51 27° NW 19:37:51 27° NW 19:40:04 10° NNW
CZ-4 R/B 3.8 19:37:16 15° SW 19:39:20 21° W 19:42:32 10° NW
CZ-4C R/B 2.9 19:37:51 10° SW 19:41:33 44° W 19:41:33 44° W
Cosmos 2061 Rocket 4.4 19:45:30 10° SSW 19:51:45 61° W 19:58:07 10° N
Cosmos 2278 Rocket 4.2 20:18:19 10° NW 20:20:25 23° NW 20:20:25 23° NW
CENTAUR R/B 3.9 20:22:06 10° NNW 20:27:18 43° NNW 20:27:18 43° NNW
